CAPE
0 0 0 0 0 0 0 0 0 0 0 0 0 0 0 0 0 0 0 2 63 2127 1891 229 223 1160 1584 436 159 232 297 151 133 165 118 61 35 39 48 335 323 336 77 62 67
0 0 0 0 0 0 0 0 0 0 0 0 0 0 0 0 0 0 0 88 2100 2499 43 20 104 103 605 401 276 249 352 94 234 235 325 258 248 201 194 175 285 145 104 76 132
0 0 0 0 0 0 0 0 0 0 0 0 0 0 0 0 0 0 10 5 844 2050 7 17 51 72 78 137 448 247 269 350 300 326 412 314 255 322 277 121 165 152 137 103 88
0 0 0 0 0 0 0 0 0 0 0 0 0 0 0 0 0 0 5 0 35 139 8 22 75 87 83 69 154 186 427 496 259 545 455 278 524 337 199 162 224 183 145 153 142
0 0 0 0 0 0 0 0 0 0 0 0 0 0 0 0 0 0 249 4 1 39 12 5 70 91 105 124 86 189 66 169 312 345 530 392 545 310 124 277 241 171 136 161 163
0 0 0 0 0 0 0 0 0 0 0 0 0 0 0 0 0 0 1 0 0 31 23 10 57 81 92 53 210 172 192 104 51 252 245 474 507 467 252 236 190 139 73 139 153
0 0 0 0 0 0 0 0 0 0 0 0 0 0 0 0 0 0 0 0 0 0 27 27 22 40 25 41 260 161 119 138 209 67 405 270 700 616 337 214 179 142 126 126 155
0 0 0 0 0 0 0 0 0 0 0 0 0 0 0 0 0 0 0 0 0 0 0 19 17 0 3 24 8 179 85 271 205 201 242 157 155 561 396 350 183 183 203 181 160
0 0 0 0 0 0 0 0 0 0 0 0 0 0 0 0 0 0 0 0 0 0 0 0 0 0 0 11 14 129 147 68 65 195 278 280 202 507 602 422 300 171 187 146 125
0 0 0 0 0 0 0 0 0 0 0 0 0 0 0 0 0 0 0 0 0 0 0 0 0 0 0 0 0 86 73 3 51 91 139 259 292 176 837 655 607 279 150 80 114
0 0 0 0 0 0 0 0 0 0 0 0 0 0 0 0 0 0 0 0 0 0 0 0 0 0 0 0 17 66 65 56 128 61 122 394 196 301 820 953 700 707 342 216 379
0 0 0 0 0 0 0 0 0 0 0 0 0 0 0 0 0 0 0 0 0 0 0 0 0 0 0 2 5 155 139 137 211 95 30 249 212 630 799 800 889 876 678 508 538
0 0 0 0 0 0 0 0 0 0 0 0 0 0 0 0 0 0 0 0 0 0 0 0 0 0 0 0 0 2 155 108 103 22 99 51 360 492 591 445 919 905 892 784 687
0 0 0 0 0 0 0 0 0 0 0 0 0 0 0 0 0 0 0 0 0 0 0 0 0 0 0 0 0 1 18 209 311 45 161 101 208 614 313 293 595 947 978 956 842
0 0 0 0 0 0 0 0 0 0 0 0 0 0 0 0 0 0 0 0 0 0 0 0 0 0 0 0 0 0 10 73 213 53 162 138 124 428 268 381 433 212 999 1019 1047
0 0 0 0 0 0 0 0 0 0 0 0 0 0 0 0 0 0 0 0 0 0 0 0 0 0 0 0 0 0 0 3 21 22 143 82 17 75 326 192 241 290 767 1056 1115
0 0 0 0 0 0 0 0 0 0 0 0 0 0 0 0 0 0 0 0 0 0 0 0 0 0 0 0 0 0 0 0 0 9 48 19 11 56 0 164 512 409 491 790 1155
0 0 0 0 0 0 0 0 0 0 0 0 0 0 0 0 0 0 0 0 0 0 0 0 0 0 0 0 0 0 0 0 0 34 39 32 9 0 0 77 84 212 267 340 1226
0 0 0 0 0 0 0 0 4 8 0 0 0 0 0 0 0 0 0 0 0 0 0 0 0 0 0 0 0 0 0 0 0 0 11 13 1 0 2 389 545 679 675 603 653
0 0 0 0 0 0 0 0 4 1 0 2 0 0 0 0 0 0 0 0 0 0 0 0 0 0 0 0 0 0 0 0 0 1 11 0 187 78 300 635 655 679 553 807 1034
0 0 0 0 0 0 0 0 0 0 0 0 1 0 0 0 0 0 0 0 0 0 0 0 0 0 0 0 0 0 0 0 0 0 17 216 194 395 280 481 363 348 388 836 1033
0 0 0 0 0 0 0 0 0 0 0 0 0 0 0 0 0 0 0 0 0 0 0 0 0 0 0 0 0 0 0 0 0 0 0 150 179 274 310 497 536 486 475 7 873
0 0 0 0 0 0 0 0 0 0 0 0 0 0 0 0 0 0 0 0 0 0 0 0 0 0 0 0 0 0 0 0 0 0 75 196 241 242 471 474 556 608 653 641 736
0 0 0 0 0 0 0 0 0 0 0 0 0 0 0 0 0 3 0 0 0 0 0 0 0 0 0 8 6 0 0 0 0 0 41 59 292 553 620 894 813 901 1016 1088 3136
0 0 0 2 0 0 0 0 0 0 0 0 0 0 0 138 11 59 4 0 0 0 0 0 0 0 3 13 93 96 0 0 0 0 91 432 590 674 662 1040 1352 1247 2061 3044 2992
0 0 0 0 0 8 5 0 0 0 0 0 0 0 9 68 135 385 0 0 0 0 0 0 2 0 0 1 5 53 0 0 6 252 629 508 617 712 692 6 1394 2152 2419 2613 2660
6 5 0 4 31 23 24 0 0 0 6 0 0 4 202 66 8 198 32 0 0 0 0 0 8 1 2 5 22 11 56 193 28 525 581 512 513 670 420 142 1323 1465 1609 1675 1535
CIN
-0 -0 -0 -0 -0 -0 -0 -0 -0 -0 -0 -0 -0 -0 -0 -0 -0 -0 -0 -54 -445 -639 -663 -458 -97 -174 -112 -34 -354 -419 -96 -9 -11 -42 -26 -52 -84 -100 -48 -20 -69 -42 -109 -152 -99
-0 -0 -0 -0 -0 -0 -0 -0 -0 -0 -0 -0 -0 -0 -0 -0 -0 -0 -0 -1020 -597 -602 -460 -308 -151 -230 -107 -38 -125 -39 -40 -82 -12 -15 -14 -91 -163 -55 -39 -44 -73 -128 -146 -145 -73
-0 -0 -0 -0 -0 -0 -0 -0 -0 -0 -0 -0 -0 -0 -0 -0 -0 -0 -148 -356 -692 -626 -332 -279 -176 -187 -132 -57 -86 -128 -40 -16 -31 -17 -62 -16 -25 -6 -64 -99 -124 -168 -140 -143 -109
-0 -0 -0 -0 -0 -0 -0 -0 -0 -0 -0 -0 -0 -0 -0 -0 -0 -0 -1348 -0 -1192 -942 -343 -255 -162 -130 -86 -20 -2 -37 -81 -233 -46 -71 -18 -117 -74 -42 -38 -108 -140 -152 -159 -138 -101
-0 -0 -0 -0 -0 -0 -0 -0 -0 -0 -0 -0 -0 -0 -0 -0 -0 -0 -969 -919 -192 -312 -334 -328 -204 -257 -85 -1 -11 -40 -322 -253 -61 -50 -121 -101 -42 -50 -66 -96 -125 -159 -198 -138 -107
-0 -0 -0 -0 -0 -0 -0 -0 -0 -0 -0 -0 -0 -0 -0 -0 -0 -0 -27 -0 -0 -311 -311 -323 -236 -276 -85 -37 -116 -355 -173 -422 -85 -19 -305 -23 -37 -81 -68 -103 -159 -178 -225 -175 -136
-0 -0 -0 -0 -0 -0 -0 -0 -0 -0 -0 -0 -0 -0 -0 -0 -0 -0 -0 -0 -0 -0 -311 -290 -315 -219 -154 -89 -73 -36 -309 -342 -400 -79 -19 -22 -29 -151 -79 -120 -177 -196 -191 -181 -133
-0 -0 -0 -0 -0 -0 -0 -0 -0 -0 -0 -0 -0 -0 -0 -0 -0 -0 -0 -0 -0 -0 -0 -298 -284 -0 -195 -105 -95 -140 -139 -167 -203 -435 -303 -70 -122 -68 -71 -101 -179 -189 -186 -161 -118
-0 -0 -0 -0 -0 -0 -0 -0 -0 -0 -0 -0 -0 -0 -0 -0 -0 -0 -0 -0 -0 -0 -0 -0 -0 -0 -14 -97 -162 -87 -235 -182 -108 -188 -192 -260 -324 -61 -122 -125 -111 -181 -190 -166 -145
-0 -0 -0 -0 -0 -0 -0 -0 -0 -0 -0 -0 -0 -0 -0 -0 -0 -0 -0 -0 -0 -0 -0 -0 -0 -0 -4 -0 -75 -115 -318 -82 -168 -8 -92 -249 -325 -61 -93 -104 -77 -122 -192 -157 -157
-0 -0 -0 -0 -0 -0 -0 -0 -0 -0 -0 -0 -0 -0 -0 -0 -0 -0 -0 -0 -0 -0 -0 -0 -0 -0 -0 -0 -64 -73 -115 -203 -221 -167 -127 -199 -195 -23 -11 -152 -67 -61 -104 -123 -163
-0 -0 -0 -0 -0 -0 -0 -0 -0 -0 -0 -0 -0 -0 -0 -0 -0 -0 -0 -0 -0 -0 -0 -0 -0 -0 -0 -255 -152 -57 -96 -162 -123 -77 -38 -120 -70 -304 -299 -266 -77 -41 -64 -94 -153
-0 -0 -0 -0 -0 -0 -0 -0 -0 -0 -0 -0 -0 -0 -0 -0 -0 -0 -0 -0 -0 -0 -0 -0 -0 -0 -0 -0 -0 -50 -82 -84 -39 -19 -149 -35 -96 -90 -171 -174 -27 -26 -14 -24 -36
-0 -0 -0 -0 -0 -0 -0 -0 -0 -0 -0 -0 -0 -0 -0 -0 -0 -0 -0 -0 -0 -0 -0 -0 -0 -0 -0 -0 -0 -25 -45 -27 -87 -50 -31 -27 -41 -43 -31 -30 -14 -29 -12 -24 -44
-0 -0 -0 -0 -0 -0 -0 -0 -0 -0 -0 -0 -0 -0 -0 -0 -0 -0 -0 -0 -0 -0 -0 -0 -0 -0 -0 -0 -0 -0 -75 -53 -139 -40 -67 -40 -21 -39 -25 -334 -406 -155 -13 -27 -38
-0 -0 -0 -0 -0 -0 -0 -0 -0 -0 -0 -0 -0 -0 -0 -0 -0 -0 -0 -0 -0 -0 -0 -0 -0 -0 -0 -0 -0 -0 -0 -43 -39 -16 -85 -29 -20 -20 -89 -39 -150 -8 -18 -27 -33
-0 -0 -0 -0 -0 -0 -0 -0 -0 -0 -0 -0 -0 -0 -0 -0 -0 -0 -0 -0 -0 -0 -0 -0 -0 -0 -0 -0 -0 -0 -0 -0 -0 -77 -18 -20 -12 -52 -0 -23 -50 -7 -22 -37 -41
-0 -0 -0 -0 -0 -0 -0 -0 -0 -0 -0 -0 -0 -0 -0 -0 -0 -0 -0 -0 -0 -0 -0 -0 -0 -0 -0 -0 -0 -0 -0 -0 -0 -74 -9 -20 -27 -0 -0 -29 -28 -43 -16 -24 -35
-0 -0 -0 -0 -0 -0 -0 -0 -28 -73 -0 -0 -0 -0 -0 -0 -0 -0 -0 -0 -0 -0 -0 -0 -0 -0 -0 -0 -0 -0 -0 -0 -0 -0 -16 -27 -43 -0 -52 -108 -80 -63 -28 -34 -24
-0 -0 -0 -0 -0 -0 -0 -0 -27 -19 -0 -7 -0 -0 -0 -0 -0 -0 -0 -0 -0 -0 -0 -0 -0 -0 -0 -0 -0 -0 -0 -0 -0 -32 -26 -0 -39 -30 -48 -40 -33 -22 -48 -24 -28
-0 -0 -0 -0 -0 -0 -0 -0 -0 -0 -0 -0 -4 -0 -0 -0 -0 -0 -0 -0 -0 -0 -0 -0 -0 -0 -0 -0 -0 -0 -0 -0 -0 -0 -35 -44 -92 -73 -105 -27 -19 -14 -466 -69 -9
-0 -0 -0 -0 -0 -0 -0 -0 -0 -0 -0 -0 -0 -0 -0 -0 -0 -0 -0 -0 -0 -0 -0 -0 -0 -0 -0 -0 -0 -0 -0 -0 -0 -0 -0 -32 -46 -21 -63 -27 -32 -34 -31 -142 -66
-0 -0 -0 -0 -0 -0 -0 -0 -0 -0 -0 -0 -0 -0 -0 -0 -0 -0 -0 -0 -0 -0 -0 -0 -0 -0 -0 -0 -0 -0 -0 -0 -0 -4 -63 -31 -46 -28 -48 -46 -52 -63 -62 -54 -26
-0 -0 -0 -0 -0 -0 -0 -0 -0 -0 -0 -0 -0 -0 -0 -0 -0 -6 -0 -0 -0 -0 -0 -0 -0 -0 -1 -42 -11 -0 -0 -0 -0 -5 -8 -50 -89 -67 -95 -116 -64 -46 -47 -38 -50
-0 -0 -0 -1 -0 -0 -0 -0 -0 -0 -0 -0 -9 -0 -0 -16 -19 -8 -1 -0 -0 -0 -0 -0 -0 -0 -108 -74 -29 -36 -0 -13 -0 -0 -10 -233 -135 -32 -82 -148 -91 -72 -49 -60 -58
-0 -0 -0 -0 -1 -113 -105 -0 -0 -0 -0 -0 -0 -0 -12 -36 -21 -17 -0 -0 -0 -0 -0 -0 -60 -0 -6 -86 -42 -36 -0 -0 -27 -99 -390 -127 -97 -38 -24 -35 -29 -15 -15 -27 -45
-0 -3 -0 -2 -24 -75 -94 -0 -0 -0 -8 -0 -0 -3 -20 -15 -40 -26 -33 -0 -0 -0 -0 -0 -64 -44 -67 -14 -18 -5 -18 -12 -5 -125 -184 -212 -177 -86 -17 -754 -12 -18 -25 -57 -125
Wind_Speed
nan nan nan nan nan nan nan nan nan nan nan nan nan nan nan nan nan nan nan nan nan 11 12 17 19 12 34 41 33 20 19 17 26 20 14 nan nan nan nan 29 22 17 nan nan nan
nan nan nan nan nan nan nan nan nan nan nan nan nan nan nan nan nan nan nan nan 5 7 nan nan 22 10 29 36 27 20 20 nan 25 23 18 4 18 23 22 23 26 24 18 nan 11
nan nan nan nan nan nan nan nan nan nan nan nan nan nan nan nan nan nan nan nan 9 6 nan nan nan nan nan 18 19 24 14 11 28 30 28 21 28 31 32 22 28 31 27 20 nan
nan nan nan nan nan nan nan nan nan nan nan nan nan nan nan nan nan nan nan nan nan 10 nan nan nan nan nan nan 15 37 29 34 25 27 4 26 28 31 23 30 30 30 28 23 15
nan nan nan nan nan nan nan nan nan nan nan nan nan nan nan nan nan nan 6 nan nan nan nan nan nan nan 29 13 nan 36 nan 20 27 25 27 10 4 14 13 26 31 31 29 26 21
nan nan nan nan nan nan nan nan nan nan nan nan nan nan nan nan nan nan nan nan nan nan nan nan nan nan nan nan 16 38 53 49 nan 7 13 18 12 16 14 21 30 37 nan 24 25
nan nan nan nan nan nan nan nan nan nan nan nan nan nan nan nan nan nan nan nan nan nan nan nan nan nan nan nan 15 21 39 27 15 nan 20 10 15 12 7 19 28 33 37 29 27
nan nan nan nan nan nan nan nan nan nan nan nan nan nan nan nan nan nan nan nan nan nan nan nan nan nan nan nan nan 15 nan 28 12 26 10 2 19 10 9 20 24 32 34 35 28
nan nan nan nan nan nan nan nan nan nan nan nan nan nan nan nan nan nan nan nan nan nan nan nan nan nan nan nan nan 8 21 nan nan 29 17 14 18 24 17 15 27 30 29 32 31
nan nan nan nan nan nan nan nan nan nan nan nan nan nan nan nan nan nan nan nan nan nan nan nan nan nan nan nan nan nan nan nan nan nan 7 19 27 17 15 18 33 33 27 nan 29
nan nan nan nan nan nan nan nan nan nan nan nan nan nan nan nan nan nan nan nan nan nan nan nan nan nan nan nan nan nan nan nan 16 nan 19 27 12 5 15 14 26 32 27 25 21
nan nan nan nan nan nan nan nan nan nan nan nan nan nan nan nan nan nan nan nan nan nan nan nan nan nan nan nan nan 23 31 16 23 nan nan 11 19 29 38 43 39 28 31 27 16
nan nan nan nan nan nan nan nan nan nan nan nan nan nan nan nan nan nan nan nan nan nan nan nan nan nan nan nan nan nan 27 32 30 nan nan nan 16 36 38 24 22 16 35 27 24
nan nan nan nan nan nan nan nan nan nan nan nan nan nan nan nan nan nan nan nan nan nan nan nan nan nan nan nan nan nan nan 37 14 nan 11 12 5 21 21 6 26 28 34 26 21
nan nan nan nan nan nan nan nan nan nan nan nan nan nan nan nan nan nan nan nan nan nan nan nan nan nan nan nan nan nan nan nan 18 nan 5 13 14 13 20 19 38 30 30 32 28
nan nan nan nan nan nan nan nan nan nan nan nan nan nan nan nan nan nan nan nan nan nan nan nan nan nan nan nan nan nan nan nan nan nan 13 nan nan nan 17 28 37 19 22 39 34
nan nan nan nan nan nan nan nan nan nan nan nan nan nan nan nan nan nan nan nan nan nan nan nan nan nan nan nan nan nan nan nan nan nan nan nan nan nan nan 8 19 21 20 36 36
nan nan nan nan nan nan nan nan nan nan nan nan nan nan nan nan nan nan nan nan nan nan nan nan nan nan nan nan nan nan nan nan nan nan nan nan nan nan nan nan nan 25 25 30 24
nan nan nan nan nan nan nan nan nan nan nan nan nan nan nan nan nan nan nan nan nan nan nan nan nan nan nan nan nan nan nan nan nan nan nan nan nan nan nan 27 26 27 24 35 26
nan nan nan nan nan nan nan nan nan nan nan nan nan nan nan nan nan nan nan nan nan nan nan nan nan nan nan nan nan nan nan nan nan nan nan nan 12 nan 21 20 25 30 26 19 20
nan nan nan nan nan nan nan nan nan nan nan nan nan nan nan nan nan nan nan nan nan nan nan nan nan nan nan nan nan nan nan nan nan nan nan 20 11 13 29 22 34 35 32 18 7
nan nan nan nan nan nan nan nan nan nan nan nan nan nan nan nan nan nan nan nan nan nan nan nan nan nan nan nan nan nan nan nan nan nan nan 23 16 15 23 27 37 39 36 nan 14
nan nan nan nan nan nan nan nan nan nan nan nan nan nan nan nan nan nan nan nan nan nan nan nan nan nan nan nan nan nan nan nan nan nan nan 16 11 20 28 28 31 50 33 26 9
nan nan nan nan nan nan nan nan nan nan nan nan nan nan nan nan nan nan nan nan nan nan nan nan nan nan nan nan nan nan nan nan nan nan nan nan 37 43 40 40 32 26 30 22 22
nan nan nan nan nan nan nan nan nan nan nan nan nan nan nan 18 nan nan nan nan nan nan nan nan nan nan nan nan nan nan nan nan nan nan nan 33 34 39 48 50 36 4 20 25 27
nan nan nan nan nan nan nan nan nan nan nan nan nan nan nan nan 21 25 nan nan nan nan nan nan nan nan nan nan nan nan nan nan nan 34 28 39 30 21 48 nan 29 16 19 23 25
nan nan nan nan nan nan nan nan nan nan nan nan nan nan 28 nan nan 32 nan nan nan nan nan nan nan nan nan nan nan nan nan 21 nan 21 28 27 20 23 38 49 11 8 20 26 26
Wind_Direction
nan nan nan nan nan nan nan nan nan nan nan nan nan nan nan nan nan nan nan nan nan 63 93 96 92 63 52 35 20 31 10 344 19 12 4 nan nan nan nan 10 9 30 nan nan nan
nan nan nan nan nan nan nan nan nan nan nan nan nan nan nan nan nan nan nan nan 92 50 nan nan 121 143 53 35 16 325 3 nan 8 6 352 6 79 30 35 17 354 347 342 nan 17
nan nan nan nan nan nan nan nan nan nan nan nan nan nan nan nan nan nan nan nan 100 80 nan nan nan nan nan 44 16 335 344 320 343 348 329 1 38 45 25 6 1 353 349 5 nan
nan nan nan nan nan nan nan nan nan nan nan nan nan nan nan nan nan nan nan nan nan 111 nan nan nan nan nan nan 95 280 232 192 156 185 2 152 25 17 17 1 355 353 0 11 22
nan nan nan nan nan nan nan nan nan nan nan nan nan nan nan nan nan nan 324 nan nan nan nan nan nan nan 113 100 nan 269 nan 184 153 166 200 83 15 332 353 358 357 356 357 16 21
nan nan nan nan nan nan nan nan nan nan nan nan nan nan nan nan nan nan nan nan nan nan nan nan nan nan nan nan 232 290 294 315 nan 201 12 97 85 347 342 2 0 2 nan 16 25
nan nan nan nan nan nan nan nan nan nan nan nan nan nan nan nan nan nan nan nan nan nan nan nan nan nan nan nan 302 257 282 285 17 nan 31 48 92 12 55 9 9 10 12 19 29
nan nan nan nan nan nan nan nan nan nan nan nan nan nan nan nan nan nan nan nan nan nan nan nan nan nan nan nan nan 279 nan 297 84 37 105 131 79 65 60 9 22 19 18 22 25
nan nan nan nan nan nan nan nan nan nan nan nan nan nan nan nan nan nan nan nan nan nan nan nan nan nan nan nan nan 220 275 nan nan 33 18 44 57 34 360 22 14 16 23 24 23
nan nan nan nan nan nan nan nan nan nan nan nan nan nan nan nan nan nan nan nan nan nan nan nan nan nan nan nan nan nan nan nan nan nan 59 27 24 51 359 28 13 12 14 nan 25
nan nan nan nan nan nan nan nan nan nan nan nan nan nan nan nan nan nan nan nan nan nan nan nan nan nan nan nan nan nan nan nan 353 nan 67 26 23 339 155 35 36 10 6 18 25
nan nan nan nan nan nan nan nan nan nan nan nan nan nan nan nan nan nan nan nan nan nan nan nan nan nan nan nan nan 310 300 338 324 nan nan 348 295 1 8 27 359 22 16 11 19
nan nan nan nan nan nan nan nan nan nan nan nan nan nan nan nan nan nan nan nan nan nan nan nan nan nan nan nan nan nan 317 296 354 nan nan nan 305 348 13 5 321 40 11 10 15
nan nan nan nan nan nan nan nan nan nan nan nan nan nan nan nan nan nan nan nan nan nan nan nan nan nan nan nan nan nan nan 325 338 nan 329 299 341 348 347 300 289 34 33 29 19
nan nan nan nan nan nan nan nan nan nan nan nan nan nan nan nan nan nan nan nan nan nan nan nan nan nan nan nan nan nan nan nan 286 nan 35 112 308 340 280 301 345 28 360 17 359
nan nan nan nan nan nan nan nan nan nan nan nan nan nan nan nan nan nan nan nan nan nan nan nan nan nan nan nan nan nan nan nan nan nan 277 nan nan nan 324 350 7 30 358 350 355
nan nan nan nan nan nan nan nan nan nan nan nan nan nan nan nan nan nan nan nan nan nan nan nan nan nan nan nan nan nan nan nan nan nan nan nan nan nan nan 22 359 359 351 324 336
nan nan nan nan nan nan nan nan nan nan nan nan nan nan nan nan nan nan nan nan nan nan nan nan nan nan nan nan nan nan nan nan nan nan nan nan nan nan nan nan nan 247 280 284 326
nan nan nan nan nan nan nan nan nan nan nan nan nan nan nan nan nan nan nan nan nan nan nan nan nan nan nan nan nan nan nan nan nan nan nan nan nan nan nan 243 258 268 260 199 183
nan nan nan nan nan nan nan nan nan nan nan nan nan nan nan nan nan nan nan nan nan nan nan nan nan nan nan nan nan nan nan nan nan nan nan nan 254 nan 267 240 268 275 267 213 202
nan nan nan nan nan nan nan nan nan nan nan nan nan nan nan nan nan nan nan nan nan nan nan nan nan nan nan nan nan nan nan nan nan nan nan 289 286 304 300 293 280 278 294 266 172
nan nan nan nan nan nan nan nan nan nan nan nan nan nan nan nan nan nan nan nan nan nan nan nan nan nan nan nan nan nan nan nan nan nan nan 288 308 293 283 276 279 287 308 nan 31
nan nan nan nan nan nan nan nan nan nan nan nan nan nan nan nan nan nan nan nan nan nan nan nan nan nan nan nan nan nan nan nan nan nan nan 265 290 260 245 286 292 312 330 353 40
nan nan nan nan nan nan nan nan nan nan nan nan nan nan nan nan nan nan nan nan nan nan nan nan nan nan nan nan nan nan nan nan nan nan nan nan 251 214 219 235 196 291 319 346 251
nan nan nan nan nan nan nan nan nan nan nan nan nan nan nan 191 nan nan nan nan nan nan nan nan nan nan nan nan nan nan nan nan nan nan nan 262 251 241 230 220 200 159 294 271 266
nan nan nan nan nan nan nan nan nan nan nan nan nan nan nan nan 204 199 nan nan nan nan nan nan nan nan nan nan nan nan nan nan nan 254 258 271 273 291 263 nan 117 146 282 279 277
nan nan nan nan nan nan nan nan nan nan nan nan nan nan 200 nan nan 121 nan nan nan nan nan nan nan nan nan nan nan nan nan 193 nan 239 267 278 309 297 293 324 9 181 263 272 278